Погода в Фианаранцуа

Мадагаскар     20°45′36″S   46°27′12″E
темп.,
°C
ветер,
м/с
пор.,
м/с
влажн.,
%
обл.,
%
осадки,
мм/ч
давл.,
гПа
погр.,
м
19 сентября, вс
вс1900:00+13всв227451 0.0 101842
03:00+12всв238812 0.1 101757
06:00+11всв358577 0.0 1019137
09:00+18всв334988 0.0 10191152
12:00+23з232670 0.0 10152389
15:00+24юз442532 0.0 10132772
18:00+19юв343824 0.0 1016552
21:00+14всв456770 0.0 1019297
20 сентября, пн
пн2000:00+12всв45797 0.0 1020270
03:00+11св348512 0.0 1019124
06:00+11св33840 0.0 102075
09:00+21св01410 0.0 1020977
12:00+23юз54306 0.0 10172364
15:00+24юз662976 0.0 10152542
18:00+20юз253599 0.0 1018524
21:00+16юв126250 0.1 102159
21 сентября, вт
вт2100:00+14всв227356 0.1 102144
03:00+15в117094 0.2 1020194
06:00+15св117145 0.0 102166
09:00+20ю21518 0.1 10221131
12:00+24ююз433414 0.0 10192175
15:00+25юз542934 0.0 10172284
18:00+20вюв344436 0.0 1019244
21:00+17св34680 0.0 102183
22 сентября, ср
ср2200:00+15ссв22737 0.0 102125
03:00+14св22730 0.0 102016
06:00+14св22730 0.0 102122
09:00+22ю23410 0.0 10201136
12:00+26ююз552916 0.0 10172619
15:00+26ююз552662 0.0 10152790
18:00+20всв575182 0.0 1017559
21:00+18св235929 0.0 1019104
23 сентября, чт
чт2300:00+18св245976 0.0 1018191
03:00+15всв347117 0.0 1018128
06:00+13всв34815 0.0 1020109
09:00+21всв344219 0.0 1019919
12:00+24в1231100 0.0 10172909
15:00+18всв3558100 0.9 1017227
18:00+17св576595 0.4 1019516
21:00+16св2471100 0.6 1021341